date,time,SUV Intensity [MED/Hr],UV Index,Daily total [MED],Since Last [MED]
17/02/2022,11:12:41,0.417,1.0,0.592,0.592
17/02/2022,11:13:48,0.418,1.0,0.6,0.008
17/02/2022,11:14:46,0.422,1.0,0.607,0.007
17/02/2022,11:15:46,0.426,1.0,0.614,0.007
17/02/2022,11:16:46,0.427,1.0,0.621,0.007
17/02/2022,11:17:54,0.429,1.0,0.629,0.008
17/02/2022,11:18:45,0.429,1.0,0.635,0.006
17/02/2022,11:19:46,0.431,1.0,0.643,0.008
17/02/2022,11:20:54,0.436,1.0,0.651,0.008
17/02/2022,11:21:44,0.420,1.0,0.657,0.006
17/02/2022,11:22:46,0.413,1.0,0.664,0.007
17/02/2022,11:23:55,0.446,1.0,0.672,0.008
17/02/2022,11:24:45,0.438,1.0,0.678,0.006
17/02/2022,11:25:46,0.421,1.0,0.686,0.008
17/02/2022,11:26:55,0.416,1.0,0.694,0.008
17/02/2022,11:27:45,0.383,1.0,0.699,0.005
17/02/2022,11:28:47,0.406,1.0,0.706,0.007
17/02/2022,11:29:54,0.458,1.0,0.714,0.008
17/02/2022,11:30:45,0.465,1.0,0.72,0.006
17/02/2022,11:31:46,0.462,1.0,0.728,0.008
17/02/2022,11:32:47,0.458,1.0,0.736,0.008
17/02/2022,11:33:46,0.457,1.0,0.744,0.008
17/02/2022,11:34:46,0.456,1.0,0.751,0.007
17/02/2022,11:35:47,0.457,1.0,0.759,0.008
17/02/2022,11:36:46,0.459,1.0,0.766,0.007
17/02/2022,11:37:46,0.459,1.0,0.774,0.008
17/02/2022,11:38:47,0.463,1.0,0.782,0.008
17/02/2022,11:39:45,0.463,1.0,0.789,0.007
17/02/2022,11:40:46,0.466,1.0,0.797,0.008
17/02/2022,11:41:46,0.467,1.0,0.805,0.008
17/02/2022,11:43:39,0.471,1.0,0.82,0.015
17/02/2022,11:44:54,0.473,1.0,0.829,0.009
17/02/2022,11:46:01,0.475,1.0,0.838,0.009
17/02/2022,11:47:47,0.478,1.0,0.852,0.014
17/02/2022,11:48:46,0.478,1.0,0.86,0.008
17/02/2022,11:49:46,0.473,1.0,0.868,0.008
17/02/2022,11:50:54,0.455,1.0,0.877,0.009
17/02/2022,11:51:44,0.446,1.0,0.884,0.007
17/02/2022,11:52:46,0.448,1.0,0.891,0.007
17/02/2022,11:53:55,0.408,1.0,0.9,0.009
17/02/2022,11:54:45,0.429,1.0,0.905,0.005
17/02/2022,11:55:47,0.441,1.0,0.913,0.008
17/02/2022,11:56:46,0.448,1.0,0.92,0.007
17/02/2022,11:57:46,0.467,1.0,0.928,0.008
17/02/2022,11:58:47,0.480,1.0,0.935,0.007
17/02/2022,11:59:46,0.394,1.0,0.942,0.007
17/02/2022,12:00:46,0.392,1.0,0.949,0.007
17/02/2022,12:01:46,0.385,1.0,0.955,0.006
17/02/2022,12:03:39,0.459,1.0,0.969,0.014
17/02/2022,12:04:46,0.449,1.0,0.977,0.008
17/02/2022,12:06:11,0.453,1.0,0.988,0.011
17/02/2022,12:07:47,0.467,1.0,1.001,0.013
17/02/2022,12:08:47,0.464,1.0,1.009,0.008
17/02/2022,12:09:46,0.493,1.0,1.017,0.008
17/02/2022,12:10:46,0.479,1.0,1.025,0.008
17/02/2022,12:11:46,0.490,1.0,1.033,0.008
17/02/2022,12:12:47,0.496,1.0,1.04,0.007
17/02/2022,12:13:47,0.495,1.0,1.048,0.008
17/02/2022,12:14:55,0.503,1.0,1.057,0.009
17/02/2022,12:15:45,0.498,1.0,1.064,0.007
17/02/2022,12:16:46,0.452,1.0,1.072,0.008
17/02/2022,12:17:55,0.458,1.0,1.081,0.009
17/02/2022,12:19:02,0.477,1.0,1.09,0.009
17/02/2022,12:20:47,0.399,1.0,1.103,0.013
17/02/2022,12:21:46,0.389,1.0,1.11,0.007
17/02/2022,12:22:46,0.382,1.0,1.116,0.006
17/02/2022,12:23:46,0.379,1.0,1.122,0.006
17/02/2022,12:24:46,0.374,1.0,1.129,0.007
17/02/2022,12:25:47,0.368,1.0,1.135,0.006
17/02/2022,12:26:47,0.367,1.0,1.141,0.006
17/02/2022,12:27:46,0.366,1.0,1.147,0.006
17/02/2022,12:28:47,0.357,1.0,1.153,0.006
17/02/2022,12:29:46,0.346,1.0,1.159,0.006
17/02/2022,12:30:46,0.338,1.0,1.165,0.006
17/02/2022,12:31:47,0.341,1.0,1.17,0.005
17/02/2022,12:32:46,0.346,1.0,1.176,0.006
17/02/2022,12:33:46,0.353,1.0,1.182,0.006
17/02/2022,12:34:45,0.350,1.0,1.188,0.006
17/02/2022,12:35:55,0.351,1.0,1.194,0.006
17/02/2022,12:36:45,0.371,1.0,1.199,0.005
17/02/2022,12:37:47,0.388,1.0,1.206,0.007
17/02/2022,12:38:46,0.416,1.0,1.213,0.007
17/02/2022,12:39:46,0.429,1.0,1.22,0.007
17/02/2022,12:40:46,0.420,1.0,1.227,0.007
17/02/2022,12:41:55,0.447,1.0,1.235,0.008
17/02/2022,12:42:45,0.435,1.0,1.241,0.006
17/02/2022,12:43:46,0.394,1.0,1.248,0.007
17/02/2022,12:44:56,0.381,1.0,1.256,0.008
17/02/2022,12:46:47,0.388,1.0,1.268,0.012
17/02/2022,12:47:37,0.390,1.0,1.273,0.005
17/02/2022,12:48:47,0.379,1.0,1.28,0.007
17/02/2022,12:49:46,0.382,1.0,1.287,0.007
17/02/2022,12:50:48,0.382,1.0,1.293,0.006
17/02/2022,12:51:46,0.380,1.0,1.299,0.006
17/02/2022,12:52:46,0.382,1.0,1.306,0.007
17/02/2022,12:53:46,0.378,1.0,1.312,0.006
17/02/2022,12:54:47,0.379,1.0,1.318,0.006
17/02/2022,12:55:46,0.395,1.0,1.325,0.007
17/02/2022,12:56:46,0.398,1.0,1.331,0.006
17/02/2022,12:57:46,0.390,1.0,1.338,0.007
17/02/2022,12:58:47,0.381,1.0,1.344,0.006
17/02/2022,12:59:46,0.378,1.0,1.351,0.007
17/02/2022,13:00:46,0.369,1.0,1.357,0.006
17/02/2022,13:01:46,0.362,1.0,1.363,0.006
17/02/2022,13:02:55,0.354,1.0,1.37,0.007
17/02/2022,13:03:45,0.352,1.0,1.375,0.005
17/02/2022,13:04:47,0.347,1.0,1.381,0.006
17/02/2022,13:05:55,0.347,1.0,1.388,0.007
17/02/2022,13:06:45,0.345,1.0,1.392,0.004
17/02/2022,13:07:47,0.345,1.0,1.398,0.006
17/02/2022,13:08:54,0.346,1.0,1.405,0.007
17/02/2022,13:09:44,0.349,1.0,1.409,0.004
17/02/2022,13:10:48,0.355,1.0,1.416,0.007
17/02/2022,13:11:46,0.352,1.0,1.421,0.005
17/02/2022,13:12:46,0.342,1.0,1.427,0.006
17/02/2022,13:13:47,0.336,1.0,1.433,0.006
17/02/2022,13:14:46,0.338,1.0,1.438,0.005
17/02/2022,13:15:46,0.349,1.0,1.444,0.006
17/02/2022,13:16:46,0.353,1.0,1.45,0.006
17/02/2022,13:17:47,0.358,1.0,1.456,0.006
17/02/2022,13:18:46,0.368,1.0,1.462,0.006
17/02/2022,13:19:47,0.387,1.0,1.468,0.006
17/02/2022,13:20:46,0.364,1.0,1.474,0.006
17/02/2022,13:21:46,0.361,1.0,1.48,0.006
17/02/2022,13:22:46,0.358,1.0,1.486,0.006
17/02/2022,13:23:54,0.353,1.0,1.493,0.007
17/02/2022,13:24:45,0.349,1.0,1.498,0.005
17/02/2022,13:25:46,0.345,1.0,1.504,0.006
17/02/2022,13:26:55,0.341,1.0,1.51,0.006
17/02/2022,13:27:45,0.338,1.0,1.515,0.005
17/02/2022,13:28:47,0.334,1.0,1.521,0.006
17/02/2022,13:29:54,0.328,1.0,1.527,0.006
17/02/2022,13:30:45,0.317,1.0,1.532,0.005
17/02/2022,13:31:47,0.309,1.0,1.537,0.005
17/02/2022,13:32:46,0.315,1.0,1.542,0.005
17/02/2022,13:33:46,0.328,1.0,1.548,0.006
17/02/2022,13:35:40,0.385,1.0,1.559,0.011
17/02/2022,13:36:46,0.325,1.0,1.565,0.006
17/02/2022,13:37:47,0.310,1.0,1.571,0.006
17/02/2022,13:38:46,0.293,1.0,1.576,0.005
17/02/2022,13:39:46,0.274,1.0,1.58,0.004
17/02/2022,13:40:47,0.257,1.0,1.585,0.005
17/02/2022,13:41:46,0.241,1.0,1.589,0.004
17/02/2022,13:50:38,0.376,1.0,1.625,0.036
17/02/2022,13:55:49,0.360,1.0,1.657,0.032
17/02/2022,13:56:46,0.357,1.0,1.662,0.005
17/02/2022,13:57:46,0.355,1.0,1.668,0.006
17/02/2022,13:58:45,0.354,1.0,1.674,0.006
17/02/2022,13:59:54,0.348,1.0,1.681,0.007
17/02/2022,14:00:41,0.346,1.0,1.685,0.004
17/02/2022,14:01:46,0.342,1.0,1.692,0.007
17/02/2022,14:02:54,0.340,1.0,1.698,0.006
17/02/2022,14:03:45,0.337,1.0,1.703,0.005
17/02/2022,14:04:45,0.335,1.0,1.708,0.005
17/02/2022,14:06:46,0.330,1.0,1.72,0.012
17/02/2022,14:07:45,0.328,1.0,1.725,0.005
17/02/2022,14:08:46,0.324,1.0,1.73,0.005
17/02/2022,14:09:46,0.293,1.0,1.736,0.006
17/02/2022,14:10:45,0.317,1.0,1.741,0.005
17/02/2022,14:11:53,0.272,1.0,1.747,0.006
17/02/2022,14:12:46,0.264,1.0,1.751,0.004
17/02/2022,14:13:46,0.283,1.0,1.755,0.004
17/02/2022,14:14:46,0.259,1.0,1.76,0.005
17/02/2022,14:15:46,0.249,1.0,1.764,0.004
17/02/2022,14:16:46,0.253,1.0,1.769,0.005
17/02/2022,14:17:46,0.301,1.0,1.773,0.004
17/02/2022,14:18:46,0.249,1.0,1.778,0.005
17/02/2022,14:19:46,0.289,1.0,1.782,0.004
17/02/2022,14:20:46,0.245,1.0,1.787,0.005
17/02/2022,14:21:46,0.286,1.0,1.791,0.004
17/02/2022,14:22:46,0.245,1.0,1.796,0.005
17/02/2022,14:23:46,0.234,1.0,1.8,0.004
17/02/2022,14:24:46,0.243,1.0,1.803,0.003
17/02/2022,14:25:45,0.236,1.0,1.808,0.005
17/02/2022,14:26:54,0.238,1.0,1.812,0.004
17/02/2022,14:27:46,0.233,1.0,1.816,0.004
17/02/2022,14:28:47,0.265,1.0,1.82,0.004
17/02/2022,14:29:54,0.265,1.0,1.825,0.005
17/02/2022,14:30:46,0.265,1.0,1.829,0.004
17/02/2022,14:31:46,0.257,1.0,1.833,0.004
17/02/2022,14:32:46,0.262,1.0,1.837,0.004
17/02/2022,14:33:46,0.257,1.0,1.842,0.005
17/02/2022,14:34:46,0.256,1.0,1.846,0.004
17/02/2022,14:35:46,0.254,1.0,1.85,0.004
17/02/2022,14:36:46,0.250,1.0,1.854,0.004
17/02/2022,14:37:46,0.250,1.0,1.859,0.005
17/02/2022,14:38:46,0.246,1.0,1.863,0.004
17/02/2022,14:39:47,0.242,1.0,1.867,0.004
17/02/2022,14:40:46,0.240,1.0,1.871,0.004
17/02/2022,14:41:46,0.237,1.0,1.875,0.004
17/02/2022,14:42:47,0.235,1.0,1.879,0.004
17/02/2022,14:43:45,0.233,1.0,1.883,0.004
17/02/2022,14:44:46,0.230,1.0,1.886,0.003
17/02/2022,14:45:46,0.228,1.0,1.89,0.004
17/02/2022,14:46:46,0.225,1.0,1.894,0.004
17/02/2022,14:47:46,0.222,1.0,1.898,0.004
17/02/2022,14:48:46,0.222,1.0,1.901,0.003
17/02/2022,14:49:46,0.218,1.0,1.905,0.004
17/02/2022,14:50:54,0.214,0.0,1.909,0.004
17/02/2022,14:51:45,0.212,0.0,1.912,0.003
17/02/2022,14:52:45,0.209,0.0,1.916,0.004
17/02/2022,14:53:46,0.206,0.0,1.919,0.003
17/02/2022,14:54:46,0.204,0.0,1.923,0.004
17/02/2022,14:55:54,0.201,0.0,1.926,0.003
17/02/2022,14:56:46,0.197,0.0,1.929,0.003
17/02/2022,14:57:45,0.197,0.0,1.933,0.004
17/02/2022,14:58:45,0.193,0.0,1.936,0.003
17/02/2022,14:59:46,0.190,0.0,1.939,0.003
17/02/2022,15:00:46,0.185,0.0,1.942,0.003
17/02/2022,15:01:46,0.183,0.0,1.945,0.003
17/02/2022,15:02:46,0.182,0.0,1.948,0.003
17/02/2022,15:03:48,0.180,0.0,1.951,0.003
17/02/2022,15:04:54,0.177,0.0,1.955,0.004
17/02/2022,15:05:46,0.176,0.0,1.957,0.002
17/02/2022,15:06:46,0.174,0.0,1.96,0.003
17/02/2022,15:07:54,0.171,0.0,1.963,0.003
17/02/2022,15:08:46,0.158,0.0,1.966,0.003
17/02/2022,15:09:45,0.157,0.0,1.968,0.002
17/02/2022,15:10:46,0.163,0.0,1.971,0.003
17/02/2022,15:11:46,0.158,0.0,1.974,0.003
17/02/2022,15:12:46,0.161,0.0,1.976,0.002
17/02/2022,15:13:46,0.157,0.0,1.979,0.003
17/02/2022,15:14:46,0.155,0.0,1.982,0.003
17/02/2022,15:15:46,0.154,0.0,1.984,0.002
17/02/2022,15:16:46,0.150,0.0,1.987,0.003
17/02/2022,15:17:45,0.149,0.0,1.989,0.002
17/02/2022,15:18:45,0.148,0.0,1.992,0.003
17/02/2022,15:19:46,0.143,0.0,1.994,0.002
17/02/2022,15:20:46,0.141,0.0,1.996,0.002
17/02/2022,15:21:46,0.137,0.0,1.999,0.003
17/02/2022,15:22:46,0.137,0.0,2.001,0.002
17/02/2022,15:23:46,0.135,0.0,2.003,0.002
17/02/2022,15:24:45,0.131,0.0,2.005,0.002
17/02/2022,15:25:45,0.125,0.0,2.008,0.003
17/02/2022,15:26:45,0.126,0.0,2.01,0.002
17/02/2022,15:27:46,0.125,0.0,2.012,0.002
17/02/2022,15:28:47,0.124,0.0,2.014,0.002
17/02/2022,15:29:45,0.121,0.0,2.016,0.002
17/02/2022,15:30:46,0.119,0.0,2.018,0.002
17/02/2022,15:31:46,0.117,0.0,2.02,0.002
17/02/2022,15:32:46,0.116,0.0,2.022,0.002
17/02/2022,15:33:46,0.114,0.0,2.024,0.002
17/02/2022,15:34:46,0.112,0.0,2.026,0.002
17/02/2022,15:35:46,0.110,0.0,2.027,0.001
17/02/2022,15:36:46,0.108,0.0,2.029,0.002
17/02/2022,15:37:54,0.105,0.0,2.031,0.002
17/02/2022,15:38:45,0.105,0.0,2.033,0.002
17/02/2022,15:39:45,0.103,0.0,2.034,0.001
17/02/2022,15:40:45,0.100,0.0,2.036,0.002
17/02/2022,15:41:46,0.100,0.0,2.038,0.002
17/02/2022,15:42:46,0.097,0.0,2.039,0.001
17/02/2022,15:43:46,0.095,0.0,2.041,0.002
17/02/2022,15:44:46,0.094,0.0,2.043,0.002
17/02/2022,15:45:46,0.092,0.0,2.044,0.001
17/02/2022,15:46:46,0.090,0.0,2.046,0.002
17/02/2022,15:47:46,0.089,0.0,2.047,0.001
17/02/2022,15:48:46,0.087,0.0,2.049,0.002
17/02/2022,15:49:46,0.085,0.0,2.05,0.001
17/02/2022,15:50:46,0.084,0.0,2.052,0.002
17/02/2022,15:51:54,0.081,0.0,2.053,0.001
17/02/2022,15:52:46,0.079,0.0,2.054,0.001
17/02/2022,15:53:46,0.077,0.0,2.056,0.002
17/02/2022,15:54:59,0.074,0.0,2.057,0.001
17/02/2022,15:56:46,0.073,0.0,2.059,0.002
17/02/2022,15:57:47,0.072,0.0,2.06,0.001
17/02/2022,15:58:46,0.071,0.0,2.062,0.002
17/02/2022,15:59:46,0.069,0.0,2.063,0.001
17/02/2022,16:00:46,0.067,0.0,2.064,0.001
17/02/2022,16:01:46,0.065,0.0,2.065,0.001
17/02/2022,16:02:46,0.063,0.0,2.066,0.001
17/02/2022,16:03:45,0.060,0.0,2.067,0.001
17/02/2022,16:04:46,0.059,0.0,2.068,0.001
17/02/2022,16:05:46,0.057,0.0,2.069,0.001
17/02/2022,16:06:45,0.056,0.0,2.07,0.001
17/02/2022,16:07:46,0.055,0.0,2.071,0.001
17/02/2022,16:08:46,0.053,0.0,2.072,0.001
17/02/2022,16:09:46,0.052,0.0,2.073,0.001
17/02/2022,16:10:46,0.051,0.0,2.074,0.001
17/02/2022,16:11:46,0.047,0.0,2.074,0.0
17/02/2022,16:12:46,0.045,0.0,2.075,0.001
17/02/2022,16:13:46,0.041,0.0,2.076,0.001
17/02/2022,16:14:46,0.037,0.0,2.077,0.001
17/02/2022,16:15:54,0.034,0.0,2.077,0.0
17/02/2022,16:16:46,0.032,0.0,2.078,0.001
17/02/2022,16:17:46,0.031,0.0,2.078,0.0
17/02/2022,16:18:54,0.032,0.0,2.079,0.001
17/02/2022,16:19:46,0.032,0.0,2.079,0.0
17/02/2022,16:20:46,0.034,0.0,2.08,0.001
17/02/2022,16:21:54,0.036,0.0,2.08,0.0
17/02/2022,16:22:46,0.036,0.0,2.081,0.001
17/02/2022,16:23:46,0.036,0.0,2.082,0.001
17/02/2022,16:24:46,0.036,0.0,2.082,0.0
17/02/2022,16:25:46,0.035,0.0,2.083,0.001
17/02/2022,16:26:46,0.035,0.0,2.083,0.0
17/02/2022,16:27:46,0.034,0.0,2.084,0.001
17/02/2022,16:28:46,0.033,0.0,2.085,0.001
17/02/2022,16:29:46,0.033,0.0,2.085,0.0
17/02/2022,16:30:46,0.031,0.0,2.086,0.001
17/02/2022,16:31:46,0.030,0.0,2.086,0.0
17/02/2022,16:32:46,0.030,0.0,2.087,0.001
17/02/2022,16:33:46,0.029,0.0,2.087,0.0
17/02/2022,16:34:46,0.028,0.0,2.088,0.001
17/02/2022,16:35:46,0.026,0.0,2.088,0.0
17/02/2022,16:36:45,0.026,0.0,2.088,0.0
17/02/2022,16:37:47,0.024,0.0,2.089,0.001
17/02/2022,16:38:46,0.024,0.0,2.089,0.0
17/02/2022,16:39:46,0.024,0.0,2.09,0.001
17/02/2022,16:40:45,0.023,0.0,2.09,0.0
17/02/2022,16:41:46,0.022,0.0,2.09,0.0
17/02/2022,16:42:46,0.021,0.0,2.091,0.001
17/02/2022,16:43:46,0.021,0.0,2.091,0.0
17/02/2022,16:44:46,0.021,0.0,2.092,0.001
17/02/2022,16:45:46,0.018,0.0,2.092,0.0
17/02/2022,16:46:46,0.019,0.0,2.092,0.0
17/02/2022,16:47:55,0.018,0.0,2.093,0.001
17/02/2022,16:48:46,0.017,0.0,2.093,0.0
17/02/2022,16:49:46,0.017,0.0,2.093,0.0
17/02/2022,16:51:19,0.016,0.0,2.093,0.0
17/02/2022,16:52:46,0.014,0.0,2.094,0.001
17/02/2022,16:53:46,0.015,0.0,2.094,0.0
17/02/2022,16:54:46,0.014,0.0,2.094,0.0
17/02/2022,16:55:48,0.014,0.0,2.095,0.001
17/02/2022,16:56:46,0.014,0.0,2.095,0.0
17/02/2022,16:57:46,0.012,0.0,2.095,0.0
17/02/2022,16:58:46,0.012,0.0,2.095,0.0
17/02/2022,16:59:45,0.011,0.0,2.095,0.0
17/02/2022,17:00:45,0.011,0.0,2.096,0.001
17/02/2022,17:01:46,0.010,0.0,2.096,0.0
17/02/2022,17:02:46,0.010,0.0,2.096,0.0
17/02/2022,17:03:46,0.010,0.0,2.096,0.0
17/02/2022,17:04:46,0.009,0.0,2.096,0.0
17/02/2022,17:05:46,0.009,0.0,2.096,0.0
17/02/2022,17:06:46,0.008,0.0,2.097,0.001
17/02/2022,17:07:46,0.008,0.0,2.097,0.0
17/02/2022,17:08:46,0.007,0.0,2.097,0.0
17/02/2022,17:09:46,0.007,0.0,2.097,0.0
17/02/2022,17:10:46,0.007,0.0,2.097,0.0
17/02/2022,17:11:46,0.007,0.0,2.097,0.0
17/02/2022,17:12:46,0.007,0.0,2.097,0.0
17/02/2022,17:13:46,0.006,0.0,2.097,0.0
17/02/2022,17:14:47,0.005,0.0,2.097,0.0
17/02/2022,17:15:46,0.005,0.0,2.097,0.0
17/02/2022,17:16:46,0.005,0.0,2.097,0.0
17/02/2022,17:17:54,0.004,0.0,2.097,0.0
17/02/2022,17:18:46,0.005,0.0,2.097,0.0
17/02/2022,17:19:46,0.004,0.0,2.097,0.0
17/02/2022,17:20:54,0.004,0.0,2.097,0.0
17/02/2022,17:21:46,0.003,0.0,2.097,0.0
17/02/2022,17:22:46,0.003,0.0,2.097,0.0
17/02/2022,17:23:46,0.003,0.0,2.097,0.0
17/02/2022,17:24:46,0.003,0.0,2.097,0.0
17/02/2022,17:25:46,0.002,0.0,2.097,0.0
17/02/2022,17:26:46,0.003,0.0,2.097,0.0
17/02/2022,17:27:46,0.002,0.0,2.097,0.0
17/02/2022,17:28:46,0.002,0.0,2.097,0.0
17/02/2022,17:29:46,0.002,0.0,2.097,0.0
17/02/2022,17:30:46,0.002,0.0,2.097,0.0
17/02/2022,17:31:46,0.002,0.0,2.097,0.0
17/02/2022,17:32:46,0.002,0.0,2.097,0.0
17/02/2022,17:33:46,0.001,0.0,2.097,0.0
17/02/2022,17:34:46,0.001,0.0,2.097,0.0
17/02/2022,17:35:55,0.002,0.0,2.097,0.0
17/02/2022,17:36:46,0.001,0.0,2.097,0.0
17/02/2022,17:37:46,0.001,0.0,2.097,0.0
17/02/2022,17:38:54,0.001,0.0,2.097,0.0
17/02/2022,17:39:46,0.001,0.0,2.097,0.0
17/02/2022,17:40:46,0.001,0.0,2.097,0.0
17/02/2022,17:41:56,0.000,0.0,2.097,0.0
17/02/2022,17:42:46,0.001,0.0,2.097,0.0
17/02/2022,17:43:48,0.001,0.0,2.097,0.0
17/02/2022,17:44:46,0.001,0.0,2.097,0.0
17/02/2022,17:45:46,0.001,0.0,2.097,0.0
17/02/2022,17:46:46,0.001,0.0,2.097,0.0
17/02/2022,17:47:48,0.000,0.0,2.097,0.0
17/02/2022,17:48:47,0.001,0.0,2.097,0.0
17/02/2022,17:49:46,0.001,0.0,2.097,0.0
17/02/2022,17:50:47,0.001,0.0,2.097,0.0
17/02/2022,17:51:46,0.000,0.0,2.097,0.0
17/02/2022,17:52:46,0.001,0.0,2.097,0.0
17/02/2022,17:53:59,0.001,0.0,2.097,0.0
17/02/2022,17:55:46,0.000,0.0,2.097,0.0
17/02/2022,17:56:46,0.001,0.0,2.097,0.0
17/02/2022,17:57:46,0.001,0.0,2.097,0.0
17/02/2022,17:58:46,0.001,0.0,2.097,0.0
17/02/2022,17:59:54,0.001,0.0,2.097,0.0
17/02/2022,18:00:46,0.001,0.0,2.097,0.0
17/02/2022,18:01:46,0.001,0.0,2.097,0.0
17/02/2022,18:02:46,-0.000,0.0,2.097,0.0
17/02/2022,18:03:46,-0.000,0.0,2.097,0.0
17/02/2022,18:04:46,-0.000,0.0,2.097,0.0
17/02/2022,18:05:46,0.000,0.0,2.097,0.0
17/02/2022,18:06:46,-0.001,0.0,2.097,0.0
17/02/2022,18:07:46,0.000,0.0,2.097,0.0
17/02/2022,18:08:46,0.001,0.0,2.097,0.0
17/02/2022,18:09:47,0.001,0.0,2.097,0.0
17/02/2022,18:10:46,0.001,0.0,2.097,0.0
17/02/2022,18:11:46,0.001,0.0,2.097,0.0
17/02/2022,18:12:46,0.001,0.0,2.097,0.0
17/02/2022,18:13:46,0.001,0.0,2.097,0.0
17/02/2022,18:14:47,0.001,0.0,2.097,0.0
17/02/2022,18:15:46,0.001,0.0,2.097,0.0
17/02/2022,18:16:46,-0.000,0.0,2.097,0.0
17/02/2022,18:17:46,0.001,0.0,2.097,0.0
17/02/2022,18:18:54,0.001,0.0,2.097,0.0
17/02/2022,18:19:46,0.001,0.0,2.097,0.0
17/02/2022,18:20:55,0.000,0.0,2.097,0.0
17/02/2022,18:21:46,0.000,0.0,2.097,0.0
17/02/2022,18:22:46,0.001,0.0,2.097,0.0
17/02/2022,18:23:46,-0.000,0.0,2.097,0.0
17/02/2022,18:24:46,0.001,0.0,2.097,0.0
17/02/2022,18:25:46,0.001,0.0,2.097,0.0
17/02/2022,18:26:46,0.001,0.0,2.097,0.0
17/02/2022,18:27:46,0.001,0.0,2.097,0.0
17/02/2022,18:28:46,0.001,0.0,2.097,0.0
17/02/2022,18:29:46,0.001,0.0,2.097,0.0
17/02/2022,18:30:46,0.000,0.0,2.097,0.0
17/02/2022,18:31:46,0.001,0.0,2.097,0.0
17/02/2022,18:32:46,0.001,0.0,2.097,0.0
17/02/2022,18:33:46,-0.000,0.0,2.097,0.0
17/02/2022,18:34:46,0.001,0.0,2.097,0.0
17/02/2022,18:35:46,0.001,0.0,2.097,0.0
17/02/2022,18:36:55,0.001,0.0,2.097,0.0
17/02/2022,18:37:47,0.001,0.0,2.097,0.0
17/02/2022,18:38:47,0.001,0.0,2.097,0.0
17/02/2022,18:39:54,0.001,0.0,2.097,0.0
17/02/2022,18:40:46,0.001,0.0,2.097,0.0
17/02/2022,18:41:46,0.001,0.0,2.097,0.0
17/02/2022,18:42:55,0.001,0.0,2.097,0.0
17/02/2022,18:43:46,0.001,0.0,2.097,0.0
17/02/2022,18:44:46,0.000,0.0,2.097,0.0
17/02/2022,18:45:47,0.001,0.0,2.097,0.0
17/02/2022,18:46:46,0.001,0.0,2.097,0.0
17/02/2022,18:47:46,0.001,0.0,2.097,0.0
17/02/2022,18:48:46,0.001,0.0,2.097,0.0
17/02/2022,18:49:46,0.001,0.0,2.097,0.0
17/02/2022,18:50:46,0.001,0.0,2.097,0.0
17/02/2022,18:51:46,0.000,0.0,2.097,0.0
17/02/2022,18:52:46,0.001,0.0,2.097,0.0
17/02/2022,18:53:46,0.001,0.0,2.097,0.0
17/02/2022,18:54:46,0.001,0.0,2.097,0.0
17/02/2022,18:55:46,0.001,0.0,2.097,0.0
17/02/2022,18:56:46,0.001,0.0,2.097,0.0
17/02/2022,18:57:54,0.001,0.0,2.097,0.0
17/02/2022,18:58:46,0.001,0.0,2.097,0.0
17/02/2022,18:59:47,0.001,0.0,2.097,0.0
17/02/2022,19:00:47,0.001,0.0,2.097,0.0
17/02/2022,19:01:46,0.001,0.0,2.097,0.0
17/02/2022,19:02:46,0.000,0.0,2.097,0.0
17/02/2022,19:03:46,0.001,0.0,2.097,0.0
17/02/2022,19:04:46,0.001,0.0,2.097,0.0
17/02/2022,19:05:47,0.001,0.0,2.097,0.0
17/02/2022,19:06:46,0.001,0.0,2.097,0.0
17/02/2022,19:07:47,0.001,0.0,2.097,0.0
17/02/2022,19:08:46,0.001,0.0,2.097,0.0
17/02/2022,19:09:46,0.001,0.0,2.097,0.0
17/02/2022,19:10:46,0.001,0.0,2.097,0.0
17/02/2022,19:11:46,-0.001,0.0,2.097,0.0
17/02/2022,19:12:46,0.001,0.0,2.097,0.0
17/02/2022,19:13:55,-0.000,0.0,2.097,0.0
17/02/2022,19:14:48,0.001,0.0,2.097,0.0
17/02/2022,19:15:37,0.000,0.0,2.097,0.0
17/02/2022,19:16:47,0.001,0.0,2.097,0.0
17/02/2022,19:17:46,0.001,0.0,2.097,0.0
17/02/2022,19:18:46,0.001,0.0,2.097,0.0
17/02/2022,19:19:46,0.001,0.0,2.097,0.0
17/02/2022,19:20:46,0.000,0.0,2.097,0.0
17/02/2022,19:21:46,0.000,0.0,2.097,0.0
17/02/2022,19:22:46,0.000,0.0,2.097,0.0
17/02/2022,19:23:46,0.001,0.0,2.097,0.0
17/02/2022,19:24:46,0.001,0.0,2.097,0.0
17/02/2022,19:25:47,0.001,0.0,2.097,0.0
17/02/2022,19:26:47,0.001,0.0,2.097,0.0
17/02/2022,19:27:46,0.001,0.0,2.097,0.0
17/02/2022,19:28:46,0.001,0.0,2.097,0.0
17/02/2022,19:29:47,-0.001,0.0,2.097,0.0
17/02/2022,19:30:47,0.000,0.0,2.097,0.0
17/02/2022,19:31:47,0.000,0.0,2.097,0.0
17/02/2022,19:32:47,-0.000,0.0,2.097,0.0
17/02/2022,19:33:46,-0.000,0.0,2.097,0.0
17/02/2022,19:34:46,0.001,0.0,2.097,0.0
17/02/2022,19:35:46,0.001,0.0,2.097,0.0
17/02/2022,19:36:46,0.001,0.0,2.097,0.0
17/02/2022,19:37:46,-0.001,0.0,2.097,0.0
17/02/2022,19:38:46,0.000,0.0,2.097,0.0
17/02/2022,19:39:47,0.001,0.0,2.097,0.0
17/02/2022,19:40:46,0.001,0.0,2.097,0.0
17/02/2022,19:41:54,0.001,0.0,2.097,0.0
17/02/2022,19:42:46,-0.001,0.0,2.097,0.0
17/02/2022,19:43:46,-0.001,0.0,2.097,0.0
17/02/2022,19:44:46,-0.001,0.0,2.097,0.0
17/02/2022,19:45:44,0.001,0.0,2.097,0.0
17/02/2022,19:46:46,0.001,0.0,2.097,0.0
17/02/2022,19:47:54,0.000,0.0,2.097,0.0
17/02/2022,19:48:46,0.001,0.0,2.097,0.0
17/02/2022,19:49:48,0.000,0.0,2.097,0.0
17/02/2022,19:50:56,0.001,0.0,2.097,0.0
17/02/2022,19:51:48,0.000,0.0,2.097,0.0
17/02/2022,19:52:48,0.000,0.0,2.097,0.0
17/02/2022,19:53:48,0.001,0.0,2.097,0.0
17/02/2022,19:54:48,-0.000,0.0,2.097,0.0
17/02/2022,19:55:49,0.000,0.0,2.097,0.0
17/02/2022,19:56:47,0.001,0.0,2.097,0.0
17/02/2022,19:57:47,0.001,0.0,2.097,0.0
17/02/2022,19:58:48,0.001,0.0,2.097,0.0
17/02/2022,19:59:48,-0.001,0.0,2.097,0.0
17/02/2022,20:00:56,0.001,0.0,2.097,0.0
17/02/2022,20:01:48,-0.000,0.0,2.097,0.0
17/02/2022,20:02:48,0.001,0.0,2.097,0.0
17/02/2022,20:03:48,0.000,0.0,2.097,0.0
17/02/2022,20:04:48,0.001,0.0,2.097,0.0
17/02/2022,20:05:48,0.001,0.0,2.097,0.0
17/02/2022,20:06:55,0.001,0.0,2.097,0.0
17/02/2022,20:07:47,0.001,0.0,2.097,0.0
17/02/2022,20:08:48,0.001,0.0,2.097,0.0
17/02/2022,20:09:56,0.001,0.0,2.097,0.0
17/02/2022,20:10:48,0.001,0.0,2.097,0.0
17/02/2022,20:11:48,0.001,0.0,2.097,0.0
17/02/2022,20:12:48,0.001,0.0,2.097,0.0
17/02/2022,20:13:48,0.001,0.0,2.097,0.0
17/02/2022,20:14:47,0.001,0.0,2.097,0.0
17/02/2022,20:15:48,0.000,0.0,2.097,0.0
17/02/2022,20:16:47,0.001,0.0,2.097,0.0
17/02/2022,20:17:48,0.001,0.0,2.097,0.0
17/02/2022,20:18:47,0.001,0.0,2.097,0.0
17/02/2022,20:19:56,0.001,0.0,2.097,0.0
17/02/2022,20:20:48,0.001,0.0,2.097,0.0
17/02/2022,20:21:48,0.001,0.0,2.097,0.0
17/02/2022,20:22:48,0.001,0.0,2.097,0.0
17/02/2022,20:23:48,0.000,0.0,2.097,0.0
17/02/2022,20:24:48,0.001,0.0,2.097,0.0
17/02/2022,20:25:48,0.001,0.0,2.097,0.0
17/02/2022,20:26:48,0.001,0.0,2.097,0.0
17/02/2022,20:27:47,0.001,0.0,2.097,0.0
17/02/2022,20:29:48,0.001,0.0,2.097,0.0
17/02/2022,20:30:47,-0.001,0.0,2.097,0.0
17/02/2022,20:31:47,0.001,0.0,2.097,0.0
17/02/2022,20:32:57,0.001,0.0,2.097,0.0
17/02/2022,20:33:46,0.001,0.0,2.097,0.0
17/02/2022,20:34:56,0.001,0.0,2.097,0.0
17/02/2022,20:35:48,0.001,0.0,2.097,0.0
17/02/2022,20:36:48,0.000,0.0,2.097,0.0
17/02/2022,20:37:48,0.001,0.0,2.097,0.0
17/02/2022,20:38:48,0.001,0.0,2.097,0.0
17/02/2022,20:39:48,0.001,0.0,2.097,0.0
17/02/2022,20:40:48,0.001,0.0,2.097,0.0
17/02/2022,20:41:48,0.001,0.0,2.097,0.0
17/02/2022,20:42:48,0.001,0.0,2.097,0.0
17/02/2022,20:43:48,0.000,0.0,2.097,0.0
17/02/2022,20:44:48,0.001,0.0,2.097,0.0
17/02/2022,20:45:48,0.001,0.0,2.097,0.0
17/02/2022,20:46:48,0.001,0.0,2.097,0.0
17/02/2022,20:47:48,0.000,0.0,2.097,0.0
17/02/2022,20:48:48,0.001,0.0,2.097,0.0
17/02/2022,20:49:56,0.001,0.0,2.097,0.0
17/02/2022,20:50:48,0.001,0.0,2.097,0.0
17/02/2022,20:51:48,0.001,0.0,2.097,0.0
17/02/2022,20:52:48,0.001,0.0,2.097,0.0
17/02/2022,20:53:48,0.001,0.0,2.097,0.0
17/02/2022,20:54:48,0.000,0.0,2.097,0.0
17/02/2022,20:55:48,0.001,0.0,2.097,0.0
17/02/2022,20:56:48,0.001,0.0,2.097,0.0
17/02/2022,20:57:48,0.001,0.0,2.097,0.0
17/02/2022,20:58:48,0.001,0.0,2.097,0.0
17/02/2022,20:59:48,0.001,0.0,2.097,0.0
17/02/2022,21:00:56,0.001,0.0,2.097,0.0
17/02/2022,21:01:48,0.001,0.0,2.097,0.0
17/02/2022,21:02:48,0.000,0.0,2.097,0.0
17/02/2022,21:03:56,0.001,0.0,2.097,0.0
17/02/2022,21:04:48,0.001,0.0,2.097,0.0
17/02/2022,21:05:48,0.001,0.0,2.097,0.0
17/02/2022,21:06:48,0.001,0.0,2.097,0.0
17/02/2022,21:08:05,0.001,0.0,2.097,0.0
17/02/2022,21:09:48,0.001,0.0,2.097,0.0
17/02/2022,21:10:48,0.001,0.0,2.097,0.0
17/02/2022,21:11:48,0.001,0.0,2.097,0.0
17/02/2022,21:12:48,0.001,0.0,2.097,0.0
17/02/2022,21:13:48,0.001,0.0,2.097,0.0
17/02/2022,21:14:48,-0.000,0.0,2.097,0.0
17/02/2022,21:15:48,-0.000,0.0,2.097,0.0
17/02/2022,21:16:50,0.001,0.0,2.097,0.0
17/02/2022,21:17:48,0.001,0.0,2.097,0.0
17/02/2022,21:18:48,-0.000,0.0,2.097,0.0
17/02/2022,21:19:56,0.001,0.0,2.097,0.0